Showing default

QPS-SAR-8 AMATERU-IV, 60542

Orbit data source: Space-Track

QPS-SAR-8 AMATERU-IV, 60542 is a payload satellite owned by QPS Labs (JP) in SSO that was launched on Fri, 16 Aug 2024 UTC via an FALCON 9 launch vehicle from the Air Force Western Test Range (AFWTR). Payload-class satellites include a variety of spacecraft equipped with specific instruments for various scientific and technological missions. These include communications satellites like Starlink; space stations such as the ISS; scientific satellites like the Hubble; Earth observation satellites from companies like Planet Labs, Umbra, and HawkEye 360; GPS; miniature CubeSats for education and research; and military/defense satellites.

Loading next visibility...
Identifier
60542, 2024-149CC
Orbit
SSO
Country
Flag of JPJP / JPN
Related business
Manufacturer
QPS Labs
Mission
Operational Commercial Radar Imaging
Bus & Motor
QSAT, Unknown motor
Mass
~120 kg wet, ~100 kg dry
Launch date (UTC)
2024-08-16 (1 year ago)
Launch vehicle
FALCON 9
Launch site
Air Force Western Test Range (AFWTR)
Object type
Payload
Rocket body
Debris
Shape & HBR
Hex Cyl + 2 Pan + 1 Dish, 1.8 m
Radar Cross Section
1.179 m², Large (>1 m²)

Expand to show TLE details & history
Last TLE update: 18 hours ago

TLE from 18 hours ago
0 QPS-SAR-8 AMATERU-IV
1 60542U 24149CC  25286.92638176  .00008179  00000-0  65165-3 0  9993
2 60542  97.7032   3.4133 0006698 207.3637 152.7235 15.00595225 63297
Epoch: 2025-10-13T22:13Z
TLE epoch observation values (Epoch: 2025-10-13T22:13:59.384Z)
Latitude
0.00002°
Longitude
7.19371°
Altitude
572.25 km
Speed
7.572 km/s
True Right ascension
00h 13m 39s
True Declination
0° 00' 00"
Sunlit
Object was in full shadow at epoch
Visualization orbit readout
Latitude
Unknown
Longitude
Unknown
Altitude
Unknown
Speed
Unknown
Apparent Right ascension
Unknown
Apparent Declination
Unknown
Sunlit
N/A
Visualization observer readout
Local Sidereal Time
10:32:53
Azimuth
Unknown
Elevation
Unknown
Doppler factor
Unknown
Orbital elements
Apogee altitude
566.713 km
Perigee altitude
557.416 km
Semi-major axis
6,940.201 km
Eccentricity
0.00067
Inclination
97.7032°
RAAN
3.4133°
Arg. of periapsis
207.3637°
True anomaly
152.75865°
Mean anomaly
152.7235°
Eccentric anomaly
152.74108°
Mean motion
3.75392 °/min
Orbital period
95.9 mins
BSTAR
0.00065165
Loading maneuver chart data...
Computing Atmospheric mass density...
Loading historical data...
Loading historical data...
Loading historical data...
Loading historical data...
Loading historical data...
Loading historical data...
Loading historical data...

Documentation

Showing up to 5 results
|